Time,TemperatureF,DewpointF,PressureIn,WindDirection,WindDirectionDegrees,WindSpeedMPH,WindSpeedGustMPH,Humidity,HourlyPrecipIn,Conditions,Clouds,dailyrainin,SoftwareType,DateUTC
2013-11-11 00:01:00,33.9,30.7,30.26,NNW,331,0.0,0.0,88,0.00,,,0.00,Wunderground v.1.15,2013-11-11 05:01:00,
2013-11-11 00:02:00,34.0,30.8,30.26,NNW,330,0.0,0.0,88,0.00,,,0.00,Wunderground v.1.15,2013-11-11 05:02:00,
2013-11-11 00:03:00,34.0,30.8,30.26,NNW,331,0.0,0.0,88,0.00,,,0.00,Wunderground v.1.15,2013-11-11 05:03:00,
2013-11-11 00:06:00,34.1,30.9,30.26,NNW,331,0.0,0.0,88,0.00,,,0.00,Wunderground v.1.15,2013-11-11 05:06:00,
2013-11-11 00:11:00,34.4,30.9,30.26,NNW,331,0.0,0.0,87,0.00,,,0.00,Wunderground v.1.15,2013-11-11 05:11:00,
2013-11-11 00:17:00,34.4,30.9,30.25,NNW,330,0.0,0.0,87,0.00,,,0.00,Wunderground v.1.15,2013-11-11 05:17:00,
2013-11-11 00:21:00,34.5,31.0,30.25,NNW,331,0.0,0.0,87,0.00,,,0.00,Wunderground v.1.15,2013-11-11 05:21:00,
2013-11-11 00:26:00,34.7,30.9,30.25,NNW,331,0.0,0.0,86,0.00,,,0.00,Wunderground v.1.15,2013-11-11 05:26:00,
2013-11-11 00:32:00,34.9,31.1,30.25,NNW,331,0.0,0.0,86,0.00,,,0.00,Wunderground v.1.15,2013-11-11 05:32:00,
2013-11-11 00:37:00,35.1,31.3,30.25,NNW,331,0.0,0.0,86,0.00,,,0.00,Wunderground v.1.15,2013-11-11 05:37:00,
2013-11-11 00:43:00,35.2,31.1,30.25,NNW,330,0.0,0.0,85,0.00,,,0.00,Wunderground v.1.15,2013-11-11 05:43:00,
2013-11-11 00:49:00,35.3,31.2,30.25,NNW,331,0.0,0.0,85,0.00,,,0.00,Wunderground v.1.15,2013-11-11 05:49:00,
2013-11-11 00:54:00,35.3,31.2,30.24,NNW,331,0.0,0.0,85,0.00,,,0.00,Wunderground v.1.15,2013-11-11 05:54:00,
2013-11-11 01:00:00,35.5,31.4,30.24,NNW,331,0.0,0.0,85,0.00,,,0.00,Wunderground v.1.15,2013-11-11 06:00:00,
2013-11-11 01:06:00,35.6,31.5,30.24,NNW,331,0.0,3.0,85,0.00,,,0.00,Wunderground v.1.15,2013-11-11 06:06:00,
2013-11-11 01:11:00,35.7,31.6,30.24,WNW,294,0.0,0.0,85,0.00,,,0.00,Wunderground v.1.15,2013-11-11 06:11:00,
2013-11-11 01:16:00,36.0,31.6,30.23,SSW,206,1.0,4.0,84,0.00,,,0.00,Wunderground v.1.15,2013-11-11 06:16:00,
2013-11-11 01:22:00,36.1,31.7,30.23,SSW,206,1.0,1.0,84,0.00,,,0.00,Wunderground v.1.15,2013-11-11 06:22:00,
2013-11-11 01:27:00,36.2,31.5,30.23,SSW,203,1.0,4.0,83,0.00,,,0.00,Wunderground v.1.15,2013-11-11 06:27:00,
2013-11-11 01:33:00,36.4,31.7,30.22,SSW,201,1.0,5.0,83,0.00,,,0.00,Wunderground v.1.15,2013-11-11 06:33:00,
2013-11-11 01:39:00,36.6,31.9,30.21,SW,223,2.0,5.0,83,0.00,,,0.00,Wunderground v.1.15,2013-11-11 06:39:00,
2013-11-11 01:44:00,36.7,32.0,30.21,SW,214,2.0,4.0,83,0.00,,,0.00,Wunderground v.1.15,2013-11-11 06:44:00,
2013-11-11 01:50:00,36.8,32.1,30.22,SSW,211,2.0,4.0,83,0.00,,,0.00,Wunderground v.1.15,2013-11-11 06:50:00,
2013-11-11 01:56:00,36.9,31.9,30.21,SSW,205,2.0,4.0,82,0.00,,,0.00,Wunderground v.1.15,2013-11-11 06:56:00,
2013-11-11 02:02:00,37.0,32.0,30.21,SSW,203,1.0,1.0,82,0.00,,,0.00,Wunderground v.1.15,2013-11-11 07:02:00,
2013-11-11 02:07:00,37.1,32.1,30.20,SSW,200,1.0,6.0,82,0.00,,,0.00,Wunderground v.1.15,2013-11-11 07:07:00,
2013-11-11 02:12:00,37.4,32.4,30.20,WSW,245,2.0,3.0,82,0.00,,,0.00,Wunderground v.1.15,2013-11-11 07:12:00,
2013-11-11 02:17:00,37.6,32.3,30.19,SSW,192,2.0,7.0,81,0.00,,,0.00,Wunderground v.1.15,2013-11-11 07:17:00,
2013-11-11 02:24:00,38.0,32.4,30.20,West,276,2.0,5.0,80,0.00,,,0.00,Wunderground v.1.15,2013-11-11 07:24:00,
2013-11-11 02:29:00,38.2,32.3,30.19,WSW,250,2.0,5.0,79,0.00,,,0.00,Wunderground v.1.15,2013-11-11 07:29:00,
2013-11-11 02:34:00,38.2,32.3,30.19,SSW,213,2.0,4.0,79,0.00,,,0.00,Wunderground v.1.15,2013-11-11 07:34:00,
2013-11-11 02:40:00,38.2,32.3,30.19,SSW,210,2.0,4.0,79,0.00,,,0.00,Wunderground v.1.15,2013-11-11 07:40:00,
2013-11-11 02:45:00,38.2,32.3,30.19,SW,225,2.0,2.0,79,0.00,,,0.00,Wunderground v.1.15,2013-11-11 07:45:00,
2013-11-11 02:51:00,38.1,32.2,30.19,WSW,250,1.0,1.0,79,0.00,,,0.00,Wunderground v.1.15,2013-11-11 07:51:00,
2013-11-11 02:56:00,38.1,32.5,30.19,SW,215,1.0,2.0,80,0.00,,,0.00,Wunderground v.1.15,2013-11-11 07:56:00,
2013-11-11 03:01:00,38.1,32.5,30.18,WSW,254,1.0,1.0,80,0.00,,,0.00,Wunderground v.1.15,2013-11-11 08:01:00,
2013-11-11 03:07:00,38.2,32.6,30.18,WSW,254,1.0,1.0,80,0.00,,,0.00,Wunderground v.1.15,2013-11-11 08:07:00,
2013-11-11 03:13:00,38.2,32.6,30.18,WSW,253,0.0,1.0,80,0.00,,,0.00,Wunderground v.1.15,2013-11-11 08:13:00,
2013-11-11 03:19:00,38.2,32.6,30.18,WSW,257,0.0,1.0,80,0.00,,,0.00,Wunderground v.1.15,2013-11-11 08:19:00,
2013-11-11 03:25:00,38.3,32.4,30.17,SW,234,1.0,3.0,79,0.00,,,0.00,Wunderground v.1.15,2013-11-11 08:25:00,
2013-11-11 03:30:00,38.4,32.8,30.17,WSW,240,1.0,3.0,80,0.00,,,0.00,Wunderground v.1.15,2013-11-11 08:30:00,
2013-11-11 03:35:00,38.6,32.6,30.17,SW,232,1.0,4.0,79,0.00,,,0.00,Wunderground v.1.15,2013-11-11 08:35:00,
2013-11-11 03:41:00,38.7,32.7,30.17,WSW,244,1.0,1.0,79,0.00,,,0.00,Wunderground v.1.15,2013-11-11 08:41:00,
2013-11-11 03:46:00,38.7,32.7,30.17,WSW,244,1.0,1.0,79,0.00,,,0.00,Wunderground v.1.15,2013-11-11 08:46:00,
2013-11-11 03:52:00,38.9,32.9,30.16,SW,234,1.0,2.0,79,0.00,,,0.00,Wunderground v.1.15,2013-11-11 08:52:00,
2013-11-11 03:57:00,38.9,32.9,30.16,West,263,1.0,2.0,79,0.00,,,0.00,Wunderground v.1.15,2013-11-11 08:57:00,
2013-11-11 04:03:00,39.0,33.0,30.16,SW,219,1.0,2.0,79,0.00,,,0.00,Wunderground v.1.15,2013-11-11 09:03:00,
2013-11-11 04:08:00,39.0,33.0,30.16,SW,218,0.0,2.0,79,0.00,,,0.00,Wunderground v.1.15,2013-11-11 09:08:00,
2013-11-11 04:13:00,39.1,32.8,30.15,SW,225,1.0,6.0,78,0.00,,,0.00,Wunderground v.1.15,2013-11-11 09:13:00,
2013-11-11 04:19:00,39.1,32.8,30.15,SSW,213,1.0,6.0,78,0.00,,,0.00,Wunderground v.1.15,2013-11-11 09:19:00,
2013-11-11 04:24:00,39.2,32.9,30.15,SSW,213,0.0,1.0,78,0.00,,,0.00,Wunderground v.1.15,2013-11-11 09:24:00,
2013-11-11 04:30:00,39.3,33.0,30.15,West,266,1.0,5.0,78,0.00,,,0.00,Wunderground v.1.15,2013-11-11 09:30:00,
2013-11-11 04:35:00,39.4,33.1,30.15,West,260,1.0,3.0,78,0.00,,,0.00,Wunderground v.1.15,2013-11-11 09:35:00,
2013-11-11 04:41:00,39.7,33.1,30.14,SSW,202,2.0,2.0,77,0.00,,,0.00,Wunderground v.1.15,2013-11-11 09:41:00,
2013-11-11 04:46:00,39.9,33.3,30.15,WSW,256,2.0,4.0,77,0.00,,,0.00,Wunderground v.1.15,2013-11-11 09:46:00,
2013-11-11 04:52:00,40.0,33.4,30.14,WSW,242,2.0,3.0,77,0.00,,,0.00,Wunderground v.1.15,2013-11-11 09:52:00,
2013-11-11 04:58:00,40.0,33.4,30.14,SW,216,1.0,3.0,77,0.00,,,0.00,Wunderground v.1.15,2013-11-11 09:58:00,
2013-11-11 05:04:00,40.0,33.4,30.14,WSW,254,1.0,6.0,77,0.00,,,0.00,Wunderground v.1.15,2013-11-11 10:04:00,
2013-11-11 05:09:00,40.0,33.0,30.14,WSW,252,2.0,6.0,76,0.00,,,0.00,Wunderground v.1.15,2013-11-11 10:09:00,
2013-11-11 05:14:00,40.0,33.0,30.14,WSW,251,2.0,5.0,76,0.00,,,0.00,Wunderground v.1.15,2013-11-11 10:14:00,
2013-11-11 05:20:00,40.1,32.8,30.13,WSW,238,2.0,6.0,75,0.00,,,0.00,Wunderground v.1.15,2013-11-11 10:20:00,
2013-11-11 05:25:00,40.1,32.8,30.13,SW,225,2.0,6.0,75,0.00,,,0.00,Wunderground v.1.15,2013-11-11 10:25:00,
2013-11-11 05:31:00,40.2,32.9,30.13,WSW,248,2.0,2.0,75,0.00,,,0.00,Wunderground v.1.15,2013-11-11 10:31:00,
2013-11-11 05:36:00,40.2,32.9,30.13,SW,230,2.0,7.0,75,0.00,,,0.00,Wunderground v.1.15,2013-11-11 10:36:00,
2013-11-11 05:42:00,40.2,32.9,30.12,WSW,247,2.0,5.0,75,0.00,,,0.00,Wunderground v.1.15,2013-11-11 10:42:00,
2013-11-11 05:47:00,40.1,32.8,30.12,West,272,2.0,5.0,75,0.00,,,0.00,Wunderground v.1.15,2013-11-11 10:47:00,
2013-11-11 05:53:00,40.1,32.8,30.12,SW,227,2.0,5.0,75,0.00,,,0.00,Wunderground v.1.15,2013-11-11 10:53:00,
2013-11-11 05:58:00,40.1,32.8,30.11,SSW,213,2.0,5.0,75,0.00,,,0.00,Wunderground v.1.15,2013-11-11 10:58:00,
2013-11-11 06:04:00,40.1,32.8,30.11,SW,233,2.0,2.0,75,0.00,,,0.00,Wunderground v.1.15,2013-11-11 11:04:00,
2013-11-11 06:10:00,40.1,33.1,30.11,West,279,1.0,5.0,76,0.00,,,0.00,Wunderground v.1.15,2013-11-11 11:10:00,
2013-11-11 06:15:00,40.0,33.0,30.11,SW,225,1.0,1.0,76,0.00,,,0.00,Wunderground v.1.15,2013-11-11 11:15:00,
2013-11-11 06:20:00,40.1,33.1,30.11,West,273,1.0,7.0,76,0.00,,,0.00,Wunderground v.1.15,2013-11-11 11:20:00,
2013-11-11 06:25:00,40.2,33.2,30.12,WSW,258,2.0,6.0,76,0.00,,,0.00,Wunderground v.1.15,2013-11-11 11:25:00,
2013-11-11 06:31:00,40.1,33.1,30.11,WSW,250,2.0,2.0,76,0.00,,,0.00,Wunderground v.1.15,2013-11-11 11:31:00,
2013-11-11 06:36:00,40.1,32.8,30.11,WSW,248,1.0,4.0,75,0.00,,,0.00,Wunderground v.1.15,2013-11-11 11:36:00,
2013-11-11 06:42:00,40.1,33.1,30.10,West,280,2.0,2.0,76,0.00,,,0.00,Wunderground v.1.15,2013-11-11 11:42:00,
2013-11-11 06:47:00,40.1,33.1,30.10,West,280,2.0,3.0,76,0.00,,,0.00,Wunderground v.1.15,2013-11-11 11:47:00,
2013-11-11 06:53:00,40.1,33.1,30.10,SSW,194,1.0,3.0,76,0.00,,,0.00,Wunderground v.1.15,2013-11-11 11:53:00,
2013-11-11 06:58:00,40.1,33.1,30.10,SW,236,1.0,5.0,76,0.00,,,0.00,Wunderground v.1.15,2013-11-11 11:58:00,
2013-11-11 07:03:00,40.1,33.1,30.09,WSW,244,1.0,1.0,76,0.00,,,0.00,Wunderground v.1.15,2013-11-11 12:03:00,
2013-11-11 07:09:00,40.1,33.1,30.08,SW,227,2.0,3.0,76,0.00,,,0.00,Wunderground v.1.15,2013-11-11 12:09:00,
2013-11-11 07:14:00,40.1,32.8,30.08,WSW,245,3.0,10.0,75,0.00,,,0.00,Wunderground v.1.15,2013-11-11 12:14:00,
2013-11-11 07:20:00,40.1,32.8,30.09,SW,232,3.0,10.0,75,0.00,,,0.00,Wunderground v.1.15,2013-11-11 12:20:00,
2013-11-11 07:25:00,40.2,33.2,30.09,SW,236,2.0,4.0,76,0.00,,,0.00,Wunderground v.1.15,2013-11-11 12:25:00,
2013-11-11 07:31:00,40.3,33.3,30.10,West,277,2.0,3.0,76,0.00,,,0.00,Wunderground v.1.15,2013-11-11 12:31:00,
2013-11-11 07:37:00,40.4,33.1,30.10,WNW,288,2.0,4.0,75,0.00,,,0.00,Wunderground v.1.15,2013-11-11 12:37:00,
2013-11-11 07:43:00,40.5,33.2,30.09,West,281,1.0,2.0,75,0.00,,,0.00,Wunderground v.1.15,2013-11-11 12:43:00,
2013-11-11 07:48:00,40.5,33.2,30.09,SW,229,2.0,5.0,75,0.00,,,0.00,Wunderground v.1.15,2013-11-11 12:48:00,
2013-11-11 07:54:00,40.5,33.2,30.09,West,261,2.0,4.0,75,0.00,,,0.00,Wunderground v.1.15,2013-11-11 12:54:00,
2013-11-11 08:00:00,40.6,33.3,30.09,West,261,1.0,4.0,75,0.00,,,0.00,Wunderground v.1.15,2013-11-11 13:00:00,
2013-11-11 08:05:00,40.7,33.1,30.09,West,277,2.0,6.0,74,0.00,,,0.00,Wunderground v.1.15,2013-11-11 13:05:00,
2013-11-11 08:11:00,40.8,33.2,30.09,West,274,2.0,5.0,74,0.00,,,0.00,Wunderground v.1.15,2013-11-11 13:11:00,
2013-11-11 08:16:00,40.9,33.2,30.09,West,276,2.0,5.0,74,0.00,,,0.00,Wunderground v.1.15,2013-11-11 13:16:00,
2013-11-11 08:22:00,41.0,33.3,30.09,West,273,2.0,5.0,74,0.00,,,0.00,Wunderground v.1.15,2013-11-11 13:22:00,
2013-11-11 08:27:00,41.1,33.4,30.09,West,274,2.0,5.0,74,0.00,,,0.00,Wunderground v.1.15,2013-11-11 13:27:00,
2013-11-11 08:32:00,41.2,33.2,30.09,West,263,1.0,3.0,73,0.00,,,0.00,Wunderground v.1.15,2013-11-11 13:32:00,
2013-11-11 08:37:00,41.4,33.4,30.09,West,273,2.0,5.0,73,0.00,,,0.00,Wunderground v.1.15,2013-11-11 13:37:00,
2013-11-11 08:43:00,41.5,33.5,30.09,West,273,2.0,2.0,73,0.00,,,0.00,Wunderground v.1.15,2013-11-11 13:43:00,
2013-11-11 08:48:00,41.5,33.5,30.10,West,274,1.0,5.0,73,0.00,,,0.00,Wunderground v.1.15,2013-11-11 13:48:00,
2013-11-11 08:54:00,41.6,33.6,30.09,WNW,291,2.0,4.0,73,0.00,,,0.00,Wunderground v.1.15,2013-11-11 13:54:00,
2013-11-11 09:00:00,41.7,33.7,30.09,WNW,290,3.0,4.0,73,0.00,,,0.00,Wunderground v.1.15,2013-11-11 14:00:00,
2013-11-11 09:05:00,41.9,33.9,30.08,West,269,3.0,5.0,73,0.00,,,0.00,Wunderground v.1.15,2013-11-11 14:05:00,
2013-11-11 09:11:00,42.0,34.0,30.08,West,279,4.0,4.0,73,0.00,,,0.00,Wunderground v.1.15,2013-11-11 14:11:00,
2013-11-11 09:16:00,42.1,33.7,30.08,West,279,4.0,4.0,72,0.00,,,0.00,Wunderground v.1.15,2013-11-11 14:16:00,
2013-11-11 09:22:00,42.1,34.1,30.07,West,275,3.0,3.0,73,0.00,,,0.00,Wunderground v.1.15,2013-11-11 14:22:00,
2013-11-11 09:27:00,42.1,34.1,30.08,West,269,3.0,5.0,73,0.00,,,0.00,Wunderground v.1.15,2013-11-11 14:27:00,
2013-11-11 09:33:00,42.1,34.1,30.09,WNW,284,4.0,6.0,73,0.00,,,0.00,Wunderground v.1.15,2013-11-11 14:33:00,
2013-11-11 09:38:00,42.0,34.3,30.09,West,281,4.0,11.0,74,0.00,,,0.00,Wunderground v.1.15,2013-11-11 14:38:00,
2013-11-11 09:44:00,41.7,35.0,30.09,WNW,286,3.0,5.0,77,0.00,,,0.00,Wunderground v.1.15,2013-11-11 14:44:00,
2013-11-11 09:50:00,41.3,35.3,30.09,West,280,3.0,5.0,79,0.00,,,0.00,Wunderground v.1.15,2013-11-11 14:50:00,
2013-11-11 09:55:00,41.1,35.1,30.09,West,277,3.0,11.0,79,0.00,,,0.00,Wunderground v.1.15,2013-11-11 14:55:00,
2013-11-11 10:01:00,41.0,35.3,30.10,NW,307,5.0,5.0,80,0.00,,,0.00,Wunderground v.1.15,2013-11-11 15:01:00,
2013-11-11 10:06:00,40.9,35.5,30.09,WNW,284,5.0,6.0,81,0.00,,,0.00,Wunderground v.1.15,2013-11-11 15:06:00,
2013-11-11 10:12:00,40.9,35.8,30.10,WNW,288,4.0,5.0,82,0.00,,,0.00,Wunderground v.1.15,2013-11-11 15:12:00,
2013-11-11 10:17:00,40.7,35.9,30.09,West,281,3.0,5.0,83,0.00,,,0.00,Wunderground v.1.15,2013-11-11 15:17:00,
2013-11-11 10:23:00,40.5,36.0,30.09,WNW,284,2.0,5.0,84,0.00,,,0.01,Wunderground v.1.15,2013-11-11 15:23:00,
2013-11-11 10:28:00,40.3,36.1,30.08,WNW,294,1.0,5.0,85,0.00,,,0.01,Wunderground v.1.15,2013-11-11 15:28:00,
2013-11-11 10:34:00,40.2,36.3,30.08,WNW,290,2.0,6.0,86,0.00,,,0.01,Wunderground v.1.15,2013-11-11 15:34:00,
2013-11-11 10:40:00,40.1,36.5,30.08,WNW,290,3.0,6.0,87,0.00,,,0.01,Wunderground v.1.15,2013-11-11 15:40:00,
2013-11-11 10:45:00,40.1,36.5,30.08,WNW,290,2.0,3.0,87,0.00,,,0.01,Wunderground v.1.15,2013-11-11 15:45:00,
2013-11-11 10:51:00,40.1,36.8,30.08,WNW,290,1.0,2.0,88,0.00,,,0.01,Wunderground v.1.15,2013-11-11 15:51:00,
2013-11-11 10:56:00,40.1,36.8,30.08,WNW,287,1.0,3.0,88,0.00,,,0.01,Wunderground v.1.15,2013-11-11 15:56:00,
2013-11-11 11:01:00,40.1,36.8,30.08,WNW,286,2.0,4.0,88,0.00,,,0.01,Wunderground v.1.15,2013-11-11 16:01:00,
2013-11-11 11:06:00,40.2,36.9,30.08,WNW,284,2.0,5.0,88,0.00,,,0.01,Wunderground v.1.15,2013-11-11 16:06:00,
2013-11-11 11:12:00,40.2,36.9,30.08,WNW,283,3.0,4.0,88,0.00,,,0.02,Wunderground v.1.15,2013-11-11 16:12:00,
2013-11-11 11:17:00,40.2,36.9,30.07,WNW,284,3.0,6.0,88,0.00,,,0.02,Wunderground v.1.15,2013-11-11 16:17:00,
2013-11-11 11:23:00,40.3,37.3,30.07,West,273,3.0,4.0,89,0.00,,,0.02,Wunderground v.1.15,2013-11-11 16:23:00,
2013-11-11 11:28:00,40.3,37.3,30.07,WNW,288,3.0,4.0,89,0.00,,,0.02,Wunderground v.1.15,2013-11-11 16:28:00,
2013-11-11 11:34:00,40.3,37.6,30.07,WNW,290,4.0,6.0,90,0.00,,,0.02,Wunderground v.1.15,2013-11-11 16:34:00,
2013-11-11 11:40:00,40.3,37.6,30.07,NW,304,5.0,9.0,90,0.00,,,0.03,Wunderground v.1.15,2013-11-11 16:40:00,
2013-11-11 11:45:00,40.4,37.7,30.07,WNW,288,6.0,9.0,90,0.00,,,0.03,Wunderground v.1.15,2013-11-11 16:45:00,
2013-11-11 11:51:00,40.4,37.7,30.07,WNW,288,5.0,6.0,90,0.00,,,0.03,Wunderground v.1.15,2013-11-11 16:51:00,
2013-11-11 11:56:00,40.4,37.7,30.07,WNW,287,5.0,7.0,90,0.00,,,0.04,Wunderground v.1.15,2013-11-11 16:56:00,
2013-11-11 12:02:00,40.3,37.6,30.07,West,281,5.0,5.0,90,0.00,,,0.04,Wunderground v.1.15,2013-11-11 17:02:00,
2013-11-11 12:07:00,40.2,37.8,30.07,WNW,298,5.0,6.0,91,0.00,,,0.04,Wunderground v.1.15,2013-11-11 17:07:00,
2013-11-11 12:13:00,40.2,37.8,30.07,WNW,284,4.0,7.0,91,0.04,,,0.05,Wunderground v.1.15,2013-11-11 17:13:00,
2013-11-11 12:18:00,40.1,37.7,30.07,WNW,290,4.0,7.0,91,0.04,,,0.05,Wunderground v.1.15,2013-11-11 17:18:00,
2013-11-11 12:24:00,40.1,37.7,30.07,North,355,4.0,4.0,91,0.07,,,0.06,Wunderground v.1.15,2013-11-11 17:24:00,
2013-11-11 12:29:00,39.9,37.5,30.07,NNW,327,5.0,11.0,91,0.05,,,0.06,Wunderground v.1.15,2013-11-11 17:29:00,
2013-11-11 12:35:00,39.8,37.4,30.07,NNW,340,5.0,11.0,91,0.04,,,0.06,Wunderground v.1.15,2013-11-11 17:35:00,
2013-11-11 12:40:00,39.7,37.3,30.07,NW,308,5.0,11.0,91,0.00,,,0.07,Wunderground v.1.15,2013-11-11 17:40:00,
2013-11-11 12:45:00,39.6,37.2,30.07,NNW,329,5.0,8.0,91,0.00,,,0.07,Wunderground v.1.15,2013-11-11 17:45:00,
2013-11-11 12:51:00,39.5,37.1,30.07,NW,325,6.0,6.0,91,0.00,,,0.07,Wunderground v.1.15,2013-11-11 17:51:00,
2013-11-11 12:56:00,39.5,37.1,30.07,NNW,330,6.0,7.0,91,0.00,,,0.07,Wunderground v.1.15,2013-11-11 17:56:00,
2013-11-11 13:02:00,39.4,37.0,30.07,NNW,327,5.0,5.0,91,0.00,,,0.08,Wunderground v.1.15,2013-11-11 18:02:00,
2013-11-11 13:07:00,39.2,36.8,30.07,NW,319,6.0,9.0,91,0.00,,,0.08,Wunderground v.1.15,2013-11-11 18:07:00,
2013-11-11 13:13:00,38.9,36.5,30.07,NNW,341,6.0,9.0,91,0.04,,,0.09,Wunderground v.1.15,2013-11-11 18:13:00,
2013-11-11 13:18:00,38.7,36.3,30.07,North,5,6.0,9.0,91,0.04,,,0.09,Wunderground v.1.15,2013-11-11 18:18:00,
2013-11-11 13:23:00,38.5,36.1,30.07,North,350,5.0,6.0,91,0.04,,,0.09,Wunderground v.1.15,2013-11-11 18:23:00,
2013-11-11 13:28:00,38.3,35.9,30.07,NNW,348,4.0,6.0,91,0.05,,,0.10,Wunderground v.1.15,2013-11-11 18:28:00,
2013-11-11 13:34:00,38.0,35.6,30.08,North,355,4.0,8.0,91,0.05,,,0.10,Wunderground v.1.15,2013-11-11 18:34:00,
2013-11-11 13:40:00,37.8,35.4,30.08,NNW,331,5.0,8.0,91,0.04,,,0.10,Wunderground v.1.15,2013-11-11 18:40:00,
2013-11-11 13:45:00,37.5,35.1,30.08,NNW,341,5.0,10.0,91,0.00,,,0.11,Wunderground v.1.15,2013-11-11 18:45:00,
2013-11-11 13:51:00,37.3,34.9,30.08,NNW,340,5.0,5.0,91,0.00,,,0.11,Wunderground v.1.15,2013-11-11 18:51:00,
2013-11-11 13:56:00,37.2,35.1,30.08,NW,325,5.0,12.0,92,0.05,,,0.12,Wunderground v.1.15,2013-11-11 18:56:00,
2013-11-11 14:01:00,37.2,35.1,30.08,WNW,291,5.0,5.0,92,0.05,,,0.12,Wunderground v.1.15,2013-11-11 19:01:00,
2013-11-11 14:06:00,37.0,34.9,30.08,NNW,338,5.0,10.0,92,0.05,,,0.12,Wunderground v.1.15,2013-11-11 19:06:00,
2013-11-11 14:12:00,36.8,34.7,30.08,North,360,6.0,10.0,92,0.04,,,0.13,Wunderground v.1.15,2013-11-11 19:12:00,
2013-11-11 14:18:00,36.7,34.6,30.09,NNW,348,6.0,10.0,92,0.04,,,0.13,Wunderground v.1.15,2013-11-11 19:18:00,
2013-11-11 14:24:00,36.6,34.5,30.09,North,5,5.0,10.0,92,0.05,,,0.14,Wunderground v.1.15,2013-11-11 19:24:00,
2013-11-11 14:30:00,36.4,34.3,30.09,North,355,5.0,10.0,92,0.05,,,0.14,Wunderground v.1.15,2013-11-11 19:30:00,
2013-11-11 14:35:00,36.1,34.0,30.10,North,355,6.0,10.0,92,0.05,,,0.14,Wunderground v.1.15,2013-11-11 19:35:00,
2013-11-11 14:41:00,35.7,33.6,30.11,North,355,8.0,9.0,92,0.04,,,0.14,Wunderground v.1.15,2013-11-11 19:41:00,
2013-11-11 14:46:00,34.8,32.4,30.11,North,9,8.0,9.0,91,0.00,,,0.15,Wunderground v.1.15,2013-11-11 19:46:00,
2013-11-11 14:51:00,34.4,32.3,30.11,North,5,7.0,7.0,92,0.00,,,0.15,Wunderground v.1.15,2013-11-11 19:51:00,
2013-11-11 14:56:00,34.1,32.0,30.11,North,5,6.0,9.0,92,0.00,,,0.15,Wunderground v.1.15,2013-11-11 19:56:00,
2013-11-11 15:01:00,33.8,31.7,30.12,North,360,6.0,6.0,92,0.00,,,0.15,Wunderground v.1.15,2013-11-11 20:01:00,
2013-11-11 15:06:00,33.6,31.5,30.12,NE,47,5.0,8.0,92,0.00,,,0.15,Wunderground v.1.15,2013-11-11 20:06:00,
2013-11-11 15:12:00,32.9,30.8,30.13,NNE,15,6.0,12.0,92,0.00,,,0.15,Wunderground v.1.15,2013-11-11 20:12:00,
2013-11-11 15:17:00,32.3,30.2,30.13,North,355,7.0,12.0,92,0.00,,,0.15,Wunderground v.1.15,2013-11-11 20:17:00,
2013-11-11 15:24:00,31.9,29.8,30.14,North,360,8.0,11.0,92,0.00,,,0.15,Wunderground v.1.15,2013-11-11 20:24:00,
2013-11-11 15:29:00,31.6,29.5,30.14,NNW,337,8.0,11.0,92,0.00,,,0.15,Wunderground v.1.15,2013-11-11 20:29:00,
2013-11-11 15:35:00,31.3,29.2,30.14,NNE,32,7.0,13.0,92,0.00,,,0.15,Wunderground v.1.15,2013-11-11 20:35:00,
2013-11-11 15:41:00,31.1,29.0,30.14,North,360,8.0,8.0,92,0.00,,,0.15,Wunderground v.1.15,2013-11-11 20:41:00,
2013-11-11 15:46:00,31.0,28.9,30.14,NNE,22,6.0,8.0,92,0.00,,,0.15,Wunderground v.1.15,2013-11-11 20:46:00,
2013-11-11 15:52:00,30.9,29.1,30.15,NNE,24,5.0,5.0,93,0.00,,,0.15,Wunderground v.1.15,2013-11-11 20:52:00,
2013-11-11 15:58:00,30.8,29.0,30.15,North,355,5.0,7.0,93,0.00,,,0.15,Wunderground v.1.15,2013-11-11 20:58:00,
2013-11-11 16:03:00,30.8,29.0,30.16,NNE,26,6.0,10.0,93,0.00,,,0.15,Wunderground v.1.15,2013-11-11 21:03:00,
2013-11-11 16:09:00,30.8,29.0,30.16,North,9,7.0,10.0,93,0.00,,,0.15,Wunderground v.1.15,2013-11-11 21:09:00,
2013-11-11 16:15:00,30.7,28.9,30.16,NNW,342,6.0,8.0,93,0.00,,,0.15,Wunderground v.1.15,2013-11-11 21:15:00,
2013-11-11 16:21:00,30.7,28.9,30.17,North,10,6.0,6.0,93,0.00,,,0.15,Wunderground v.1.15,2013-11-11 21:21:00,
2013-11-11 16:27:00,30.3,28.5,30.17,North,9,7.0,15.0,93,0.00,,,0.15,Wunderground v.1.15,2013-11-11 21:27:00,
2013-11-11 16:33:00,30.1,28.3,30.18,North,350,8.0,8.0,93,0.00,,,0.15,Wunderground v.1.15,2013-11-11 21:33:00,
2013-11-11 16:38:00,30.1,28.3,30.18,North,350,7.0,14.0,93,0.00,,,0.15,Wunderground v.1.15,2013-11-11 21:38:00,
2013-11-11 16:44:00,29.9,28.1,30.19,North,360,6.0,7.0,93,0.00,,,0.15,Wunderground v.1.15,2013-11-11 21:44:00,
2013-11-11 16:49:00,29.8,28.0,30.19,North,355,7.0,14.0,93,0.00,,,0.15,Wunderground v.1.15,2013-11-11 21:49:00,
2013-11-11 16:54:00,29.5,27.7,30.19,NNW,341,9.0,12.0,93,0.00,,,0.15,Wunderground v.1.15,2013-11-11 21:54:00,
2013-11-11 17:00:00,29.3,27.5,30.20,North,360,8.0,8.0,93,0.00,,,0.15,Wunderground v.1.15,2013-11-11 22:00:00,
2013-11-11 17:06:00,29.1,27.3,30.20,NNE,19,7.0,10.0,93,0.00,,,0.15,Wunderground v.1.15,2013-11-11 22:06:00,
2013-11-11 17:12:00,29.0,27.2,30.20,NNW,337,7.0,7.0,93,0.00,,,0.15,Wunderground v.1.15,2013-11-11 22:12:00,
2013-11-11 17:17:00,28.9,27.1,30.20,NE,46,6.0,7.0,93,0.00,,,0.15,Wunderground v.1.15,2013-11-11 22:17:00,
2013-11-11 17:23:00,28.9,27.1,30.20,North,355,5.0,7.0,93,0.00,,,0.15,Wunderground v.1.15,2013-11-11 22:23:00,
2013-11-11 17:29:00,28.9,27.1,30.20,North,350,5.0,7.0,93,0.00,,,0.15,Wunderground v.1.15,2013-11-11 22:29:00,
2013-11-11 17:35:00,28.9,27.1,30.21,NNE,26,5.0,7.0,93,0.00,,,0.15,Wunderground v.1.15,2013-11-11 22:35:00,
2013-11-11 17:41:00,28.9,27.1,30.21,North,355,4.0,5.0,93,0.00,,,0.15,Wunderground v.1.15,2013-11-11 22:41:00,
2013-11-11 17:46:00,28.9,27.1,30.21,NNE,29,4.0,8.0,93,0.00,,,0.15,Wunderground v.1.15,2013-11-11 22:46:00,
2013-11-11 17:52:00,28.9,27.1,30.22,North,355,4.0,5.0,93,0.00,,,0.15,Wunderground v.1.15,2013-11-11 22:52:00,
2013-11-11 17:57:00,28.8,26.8,30.22,North,355,5.0,7.0,92,0.00,,,0.15,Wunderground v.1.15,2013-11-11 22:57:00,
2013-11-11 18:03:00,28.9,26.9,30.23,NNE,17,5.0,5.0,92,0.00,,,0.15,Wunderground v.1.15,2013-11-11 23:03:00,
2013-11-11 18:09:00,28.9,26.6,30.23,North,355,4.0,7.0,91,0.00,,,0.15,Wunderground v.1.15,2013-11-11 23:09:00,
2013-11-11 18:14:00,29.0,26.7,30.23,North,355,4.0,7.0,91,0.00,,,0.15,Wunderground v.1.15,2013-11-11 23:14:00,
2013-11-11 18:20:00,29.0,26.7,30.23,North,355,4.0,4.0,91,0.00,,,0.15,Wunderground v.1.15,2013-11-11 23:20:00,
2013-11-11 18:25:00,29.0,26.2,30.24,NE,41,5.0,11.0,89,0.00,,,0.15,Wunderground v.1.15,2013-11-11 23:25:00,
2013-11-11 18:31:00,29.0,25.3,30.24,North,9,8.0,11.0,86,0.00,,,0.15,Wunderground v.1.15,2013-11-11 23:31:00,
2013-11-11 18:36:00,29.0,25.6,30.24,NNE,28,6.0,11.0,87,0.00,,,0.15,Wunderground v.1.15,2013-11-11 23:36:00,
2013-11-11 18:42:00,28.9,25.2,30.24,North,351,5.0,7.0,86,0.00,,,0.15,Wunderground v.1.15,2013-11-11 23:42:00,
2013-11-11 18:47:00,28.8,24.9,30.24,NE,36,5.0,10.0,85,0.00,,,0.15,Wunderground v.1.15,2013-11-11 23:47:00,
2013-11-11 18:52:00,28.8,24.9,30.24,NNE,25,6.0,7.0,85,0.00,,,0.15,Wunderground v.1.15,2013-11-11 23:52:00,
2013-11-11 18:58:00,28.8,24.6,30.25,NNE,30,6.0,9.0,84,0.00,,,0.15,Wunderground v.1.15,2013-11-11 23:58:00,
2013-11-11 19:03:00,28.7,24.5,30.25,North,360,6.0,9.0,84,0.00,,,0.15,Wunderground v.1.15,2013-11-12 00:03:00,
2013-11-11 19:09:00,28.7,24.2,30.25,North,360,6.0,9.0,83,0.00,,,0.15,Wunderground v.1.15,2013-11-12 00:09:00,
2013-11-11 19:14:00,28.7,24.2,30.25,North,355,6.0,7.0,83,0.00,,,0.15,Wunderground v.1.15,2013-11-12 00:14:00,
2013-11-11 19:19:00,28.7,24.5,30.25,NNE,29,5.0,7.0,84,0.00,,,0.15,Wunderground v.1.15,2013-11-12 00:19:00,
2013-11-11 19:25:00,28.7,23.9,30.26,NNE,17,5.0,14.0,82,0.00,,,0.15,Wunderground v.1.15,2013-11-12 00:25:00,
2013-11-11 19:30:00,28.7,23.9,30.26,North,360,6.0,6.0,82,0.00,,,0.15,Wunderground v.1.15,2013-11-12 00:30:00,
2013-11-11 19:35:00,28.7,23.3,30.26,North,5,7.0,10.0,80,0.00,,,0.15,Wunderground v.1.15,2013-11-12 00:35:00,
2013-11-11 19:41:00,28.6,23.2,30.26,NNE,22,7.0,11.0,80,0.00,,,0.15,Wunderground v.1.15,2013-11-12 00:41:00,
2013-11-11 19:46:00,28.4,23.3,30.27,North,355,6.0,11.0,81,0.00,,,0.15,Wunderground v.1.15,2013-11-12 00:46:00,
2013-11-11 19:52:00,28.4,23.3,30.27,North,9,5.0,7.0,81,0.00,,,0.15,Wunderground v.1.15,2013-11-12 00:52:00,
2013-11-11 19:57:00,28.4,23.3,30.27,North,355,5.0,7.0,81,0.00,,,0.15,Wunderground v.1.15,2013-11-12 00:57:00,
2013-11-11 20:03:00,28.3,23.5,30.28,North,360,4.0,5.0,82,0.00,,,0.15,Wunderground v.1.15,2013-11-12 01:03:00,
2013-11-11 20:09:00,28.3,23.2,30.27,NNE,19,5.0,11.0,81,0.00,,,0.15,Wunderground v.1.15,2013-11-12 01:09:00,
2013-11-11 20:15:00,28.3,23.5,30.27,NNW,341,6.0,6.0,82,0.00,,,0.15,Wunderground v.1.15,2013-11-12 01:15:00,
2013-11-11 20:21:00,28.2,23.1,30.28,NNE,18,5.0,5.0,81,0.00,,,0.15,Wunderground v.1.15,2013-11-12 01:21:00,
2013-11-11 20:26:00,28.1,22.7,30.28,NNE,13,5.0,10.0,80,0.00,,,0.15,Wunderground v.1.15,2013-11-12 01:26:00,
2013-11-11 20:31:00,28.1,22.7,30.28,NNW,338,6.0,6.0,80,0.00,,,0.15,Wunderground v.1.15,2013-11-12 01:31:00,
2013-11-11 20:36:00,28.1,22.1,30.29,NE,50,6.0,11.0,78,0.00,,,0.15,Wunderground v.1.15,2013-11-12 01:36:00,
2013-11-11 20:42:00,28.1,21.8,30.29,NNE,21,7.0,11.0,77,0.00,,,0.15,Wunderground v.1.15,2013-11-12 01:42:00,
2013-11-11 20:47:00,28.1,21.8,30.30,North,349,6.0,11.0,77,0.00,,,0.15,Wunderground v.1.15,2013-11-12 01:47:00,
2013-11-11 20:53:00,28.0,22.0,30.30,NNE,32,6.0,10.0,78,0.00,,,0.15,Wunderground v.1.15,2013-11-12 01:53:00,
2013-11-11 20:59:00,28.0,22.0,30.30,NNW,348,6.0,10.0,78,0.00,,,0.15,Wunderground v.1.15,2013-11-12 01:59:00,
2013-11-11 21:04:00,27.9,21.9,30.30,North,9,5.0,6.0,78,0.00,,,0.15,Wunderground v.1.15,2013-11-12 02:04:00,
2013-11-11 21:10:00,27.9,22.2,30.31,NNE,32,5.0,6.0,79,0.00,,,0.15,Wunderground v.1.15,2013-11-12 02:10:00,
2013-11-11 21:15:00,27.8,22.1,30.31,NNE,15,5.0,10.0,79,0.00,,,0.15,Wunderground v.1.15,2013-11-12 02:15:00,
2013-11-11 21:21:00,27.8,22.1,30.31,North,360,6.0,8.0,79,0.00,,,0.15,Wunderground v.1.15,2013-11-12 02:21:00,
2013-11-11 21:26:00,27.8,22.1,30.31,North,355,7.0,10.0,79,0.00,,,0.15,Wunderground v.1.15,2013-11-12 02:26:00,
2013-11-11 21:32:00,27.7,22.0,30.32,North,355,6.0,7.0,79,0.00,,,0.15,Wunderground v.1.15,2013-11-12 02:32:00,
2013-11-11 21:38:00,27.6,21.9,30.32,North,5,6.0,11.0,79,0.00,,,0.15,Wunderground v.1.15,2013-11-12 02:38:00,
2013-11-11 21:43:00,27.5,21.8,30.32,NNW,335,6.0,16.0,79,0.00,,,0.15,Wunderground v.1.15,2013-11-12 02:43:00,
2013-11-11 21:49:00,27.5,21.8,30.32,NNW,346,8.0,16.0,79,0.00,,,0.15,Wunderground v.1.15,2013-11-12 02:49:00,
2013-11-11 21:54:00,27.4,21.7,30.33,North,10,8.0,12.0,79,0.00,,,0.15,Wunderground v.1.15,2013-11-12 02:54:00,
2013-11-11 22:00:00,27.3,21.6,30.33,NE,34,8.0,8.0,79,0.00,,,0.15,Wunderground v.1.15,2013-11-12 03:00:00,
2013-11-11 22:05:00,27.2,21.8,30.34,North,355,6.0,9.0,80,0.00,,,0.15,Wunderground v.1.15,2013-11-12 03:05:00,
2013-11-11 22:11:00,27.2,22.1,30.33,North,360,5.0,10.0,81,0.00,,,0.15,Wunderground v.1.15,2013-11-12 03:11:00,
2013-11-11 22:16:00,27.2,22.1,30.34,North,360,5.0,10.0,81,0.00,,,0.15,Wunderground v.1.15,2013-11-12 03:16:00,
2013-11-11 22:22:00,27.3,22.2,30.34,North,5,5.0,9.0,81,0.00,,,0.15,Wunderground v.1.15,2013-11-12 03:22:00,
2013-11-11 22:27:00,27.2,22.1,30.34,NNE,12,5.0,9.0,81,0.00,,,0.15,Wunderground v.1.15,2013-11-12 03:27:00,
2013-11-11 22:32:00,27.2,22.1,30.35,North,360,5.0,9.0,81,0.00,,,0.15,Wunderground v.1.15,2013-11-12 03:32:00,
2013-11-11 22:37:00,27.1,22.0,30.35,NE,40,5.0,9.0,81,0.00,,,0.15,Wunderground v.1.15,2013-11-12 03:37:00,
2013-11-11 22:43:00,27.0,21.9,30.35,North,360,6.0,10.0,81,0.00,,,0.15,Wunderground v.1.15,2013-11-12 03:43:00,
2013-11-11 22:49:00,26.9,21.8,30.36,NE,34,5.0,10.0,81,0.00,,,0.15,Wunderground v.1.15,2013-11-12 03:49:00,
2013-11-11 22:54:00,26.9,21.8,30.36,North,5,5.0,9.0,81,0.00,,,0.15,Wunderground v.1.15,2013-11-12 03:54:00,
2013-11-11 23:00:00,27.0,21.9,30.35,North,355,5.0,5.0,81,0.00,,,0.00,Wunderground v.1.15,2013-11-12 04:00:00,
2013-11-11 23:05:00,27.0,21.9,30.35,NNE,14,5.0,6.0,81,0.00,,,0.00,Wunderground v.1.15,2013-11-12 04:05:00,
2013-11-11 23:11:00,27.0,21.9,30.35,NNE,15,5.0,6.0,81,0.00,,,0.00,Wunderground v.1.15,2013-11-12 04:11:00,
2013-11-11 23:16:00,27.1,22.0,30.35,North,10,5.0,6.0,81,0.00,,,0.00,Wunderground v.1.15,2013-11-12 04:16:00,
2013-11-11 23:22:00,27.1,22.0,30.35,NNE,14,4.0,6.0,81,0.00,,,0.00,Wunderground v.1.15,2013-11-12 04:22:00,
2013-11-11 23:27:00,27.1,22.3,30.35,NNE,22,4.0,6.0,82,0.00,,,0.00,Wunderground v.1.15,2013-11-12 04:27:00,
2013-11-11 23:32:00,27.1,22.3,30.36,North,360,3.0,5.0,82,0.00,,,0.00,Wunderground v.1.15,2013-11-12 04:32:00,
2013-11-11 23:37:00,27.1,22.3,30.35,NNE,17,4.0,7.0,82,0.00,,,0.00,Wunderground v.1.15,2013-11-12 04:37:00,
2013-11-11 23:43:00,27.1,22.3,30.36,NNW,342,4.0,6.0,82,0.00,,,0.00,Wunderground v.1.15,2013-11-12 04:43:00,
2013-11-11 23:49:00,27.0,22.2,30.36,North,360,3.0,6.0,82,0.00,,,0.00,Wunderground v.1.15,2013-11-12 04:49:00,
2013-11-11 23:54:00,26.8,21.8,30.36,NNE,33,5.0,12.0,81,0.00,,,0.00,Wunderground v.1.15,2013-11-12 04:54:00,